Rome, GA

6:00 PM EDT on April 30, 2017 (GMT -0400)
Russell

Weather History for KRMG - April, 2014

Change the Weather History Date:

Friday, April 11, 2014

  Actual Average Record
Temperature  
Mean Temperature 59 °F 59 °F  
Max Temperature 74 °F 71 °F 89 °F (2001)
Min Temperature 44 °F 46 °F 32 °F (1998)
Degree Days  
Heating Degree Days 6 7  
Month to date heating degree days 70 89  
Since 1 July heating degree days 3345 3116  
Cooling Degree Days 0 1  
Month to date cooling degree days 3 7  
Year to date cooling degree days 3 11  
Growing Degree Days 8 (Base 50)    
Moisture  
Dew Point 46 °F    
Average Humidity 65    
Maximum Humidity 92    
Minimum Humidity 38    
Precipitation  
Precipitation 0.00 in 0.13 in 1.14 in (2013)
Month to date precipitation 3.85 1.33  
Year to date precipitation 16.21 15.97  
Snow  
Snow 0.00 in - - ()
Month to date snowfall 0.0  
Since 1 July snowfall T  
Snow Depth -    
Sea Level Pressure  
Sea Level Pressure 30.16 in    
Wind  
Wind Speed 4 mph (SW)    
Max Wind Speed 15 mph    
Max Gust Speed 21 mph    
Visibility 10 miles    
Events      
T = Trace of Precipitation, MM = Missing Value Source: NWS Daily Summary

Daily Weather History Graph

Daily Weather History Graph

Search for Another Location

Airport or City:

Trip Planner

Search our weather history database for the weather conditions in past years. The results will help you decide how hot, cold, wet, or windy it might be!

Date:

Astronomy

Apr. 11, 2014 Rise Set
Actual Time 7:14 AM EDT 8:09 PM EDT
Civil Twilight 6:48 AM EDT 8:35 PM EDT
Nautical Twilight 6:18 AM EDT 9:05 PM EDT
Astronomical Twilight 5:47 AM EDT 9:36 PM EDT
Moon 4:57 PM EDT (4/11) 5:00 AM EDT (4/11)
Length of Visible Light 13h 46m
Length of Day
12h 54m
Waxing Gibbous, 87% of the Moon is Illuminated
Apr 11
Waxing Gibbous
Apr 15
Full
Apr 22
Last Quarter
Apr 29
New
May 6
First Quarter

Hourly Weather History & Observations

Time (EDT) Temp. Windchill Dew Point Humidity Pressure Visibility Wind Dir Wind Speed Gust Speed Precip Events Conditions
12:53 AM 51.1 °F - 43.0 °F 74% 30.16 in 10.0 mi Calm Calm - N/A   Clear
1:53 AM 50.0 °F - 42.1 °F 74% 30.16 in 10.0 mi Calm Calm - N/A   Clear
2:53 AM 48.0 °F - 41.0 °F 77% 30.16 in 10.0 mi Calm Calm - N/A   Clear
3:53 AM 46.0 °F 43.9 °F 42.1 °F 86% 30.16 in 10.0 mi South 4.6 mph - N/A   Clear
4:53 AM 46.9 °F - 41.0 °F 80% 30.16 in 10.0 mi Calm Calm - N/A   Clear
5:53 AM 45.0 °F - 41.0 °F 86% 30.18 in 10.0 mi Calm Calm - N/A   Clear
6:53 AM 46.0 °F - 41.0 °F 83% 30.19 in 10.0 mi Calm Calm - N/A   Clear
7:53 AM 45.0 °F - 42.1 °F 90% 30.21 in 10.0 mi Calm Calm - N/A   Clear
8:53 AM 52.0 °F - 46.9 °F 83% 30.22 in 10.0 mi Calm Calm - N/A   Clear
9:53 AM 57.9 °F - 46.9 °F 67% 30.22 in 10.0 mi SW 6.9 mph - N/A   Clear
10:53 AM 62.1 °F - 50.0 °F 65% 30.23 in 10.0 mi WSW 9.2 mph - N/A   Clear
11:53 AM 64.9 °F - 51.1 °F 61% 30.22 in 10.0 mi SSW 9.2 mph - N/A   Clear
12:53 PM 66.9 °F - 50.0 °F 54% 30.20 in 10.0 mi WSW 8.1 mph - N/A   Clear
1:53 PM 70.0 °F - 48.0 °F 46% 30.18 in 10.0 mi WSW 11.5 mph 16.1 mph N/A   Clear
2:53 PM 72.0 °F - 50.0 °F 46% 30.16 in 10.0 mi SSW 8.1 mph 20.7 mph N/A   Clear
3:53 PM 72.0 °F - 46.9 °F 41% 30.12 in 10.0 mi West 8.1 mph 17.3 mph N/A   Clear
4:53 PM 73.0 °F - 48.0 °F 41% 30.11 in 10.0 mi West 8.1 mph - N/A   Clear
5:53 PM 73.0 °F - 46.9 °F 39% 30.09 in 10.0 mi Variable 6.9 mph - N/A   Clear
6:53 PM 72.0 °F - 46.9 °F 41% 30.08 in 10.0 mi SW 5.8 mph - N/A   Clear
7:53 PM 68.0 °F - 48.0 °F 49% 30.10 in 10.0 mi West 3.5 mph - N/A   Clear
8:53 PM 63.0 °F - 48.9 °F 60% 30.12 in 10.0 mi Calm Calm - N/A   Clear
9:53 PM 59.0 °F - 50.0 °F 72% 30.13 in 10.0 mi Calm Calm - N/A   Clear
10:53 PM 59.0 °F - 51.1 °F 75% 30.17 in 10.0 mi Calm Calm - N/A   Overcast
11:53 PM 57.0 °F - 51.1 °F 81% 30.17 in 10.0 mi Calm Calm - N/A   Mostly Cloudy